Weather History for Fryeburg, ME

Change the Weather History Date:

Tuesday, November 15, 2011

  Actual Average Record
Temperature  
Mean Temperature 50 °F -  
Max Temperature 62 °F 42 °F 64 °F (2008)
Min Temperature 39 °F 24 °F 5 °F (1996)
Degree Days  
Heating Degree Days 14    
Moisture  
Dew Point 43 °F    
Average Humidity 75    
Maximum Humidity 100    
Minimum Humidity 48    
Precipitation  
Precipitation 0.04 in - - ()
Sea Level Pressure  
Sea Level Pressure 29.76 in    
Wind  
Wind Speed 5 mph (WSW)    
Max Wind Speed 9 mph    
Max Gust Speed 17 mph    
Visibility 10 miles    
Events      
Averages and records for this station are not official NWS values.
T = Trace of Precipitation, MM = Missing Value Source: NWS Daily Summary

Daily Weather History Graph

Daily Weather History Graph

Search for Another Location

Airport:

Trip Planner

Search our weather history database for the weather conditions in past years. The results will help you decide how hot, cold, wet, or windy it might be!

Date:

Astronomy

Nov. 15, 2011 Rise Set
Actual Time 6:38 AM EST 4:17 PM EST
Civil Twilight 6:07 AM EST 4:48 PM EST
Nautical Twilight 5:32 AM EST 5:23 PM EST
Astronomical Twilight 4:58 AM EST 5:57 PM EST
Moon 8:22 PM EST (11/15) 10:37 AM EST (11/15)
Length of Visible Light 10h 41m
Length of Day
9h 39m
Waning Gibbous, 79% of the Moon is Illuminated
Nov 15
Waning Gibbous
Nov 18
Last Quarter
Nov 25
New
Dec 2
First Quarter
Dec 10
Full

Hourly Weather History & Observations

Time (EST) Temp. Windchill Dew Point Humidity Pressure Visibility Wind Dir Wind Speed Gust Speed Precip Events Conditions
12:54 AM 51.1 °F - 51.1 °F 100% 29.57 in 8.0 mi ESE 8.1 mph - 0.04 in   Scattered Clouds
1:54 AM 53.1 °F - 51.1 °F 93% 29.61 in 10.0 mi SW 6.9 mph - N/A   Partly Cloudy
2:54 AM 54.0 °F - 51.1 °F 90% 29.60 in 10.0 mi WSW 5.8 mph - N/A   Clear
4:54 AM 57.0 °F - 51.1 °F 81% 29.58 in 10.0 mi West 5.8 mph - N/A   Partly Cloudy
5:54 AM 57.0 °F - 51.1 °F 81% 29.58 in 10.0 mi WSW 8.1 mph 17.3 mph N/A   Scattered Clouds
8:54 AM 60.1 °F - 51.1 °F 72% 29.63 in 10.0 mi SW 8.1 mph 17.3 mph N/A   Clear
10:54 AM 61.0 °F - 46.0 °F 58% 29.70 in 10.0 mi WNW 9.2 mph - N/A   Clear
11:54 AM 62.1 °F - 46.0 °F 56% 29.71 in 10.0 mi Calm Calm - N/A   Clear
12:54 PM 60.1 °F - 42.1 °F 51% 29.74 in 10.0 mi NW 9.2 mph - N/A   Clear
2:54 PM 59.0 °F - 39.0 °F 48% 29.78 in 10.0 mi Calm Calm - N/A   Clear
3:54 PM 55.0 °F - 37.9 °F 53% 29.79 in 10.0 mi Calm Calm - N/A   Clear
4:54 PM 51.1 °F - 39.0 °F 63% 29.84 in 10.0 mi Calm Calm - N/A   Clear
5:54 PM 48.9 °F - 37.9 °F 66% 29.86 in 10.0 mi Calm Calm - N/A   Clear
6:54 PM 44.1 °F 42.5 °F 39.0 °F 82% 29.88 in 10.0 mi SW 3.5 mph - N/A   Clear
7:54 PM 43.0 °F - 39.0 °F 86% 29.91 in 10.0 mi Calm Calm - N/A   Clear
8:54 PM 42.1 °F - 37.9 °F 85% 29.92 in 10.0 mi Calm Calm - N/A   Clear
9:54 PM 39.9 °F - 36.0 °F 86% 29.93 in 10.0 mi Calm Calm - N/A   Clear
10:54 PM 41.0 °F - 37.0 °F 86% 29.94 in 10.0 mi Calm Calm - N/A   Clear
11:54 PM 39.9 °F 37.8 °F 36.0 °F 86% 29.95 in 10.0 mi WSW 3.5 mph - N/A   Clear